Time,TemperatureF,DewpointF,PressureIn,WindDirection,WindDirectionDegrees,WindSpeedMPH,WindSpeedGustMPH,Humidity,HourlyPrecipIn,Conditions,Clouds,dailyrainin,SoftwareType,DateUTC
2013-09-04 00:04:00,69.8,61.5,29.99,East,81,0.0,0.0,75,0.00,,,0.00,LWC2 V0.39 B123,2013-09-04 06:04:00,
2013-09-04 00:09:00,69.6,61.3,29.99,East,81,0.0,0.0,75,0.00,,,0.00,LWC2 V0.39 B123,2013-09-04 06:09:00,
2013-09-04 00:14:00,69.3,61.0,29.99,East,80,0.0,0.0,75,0.00,,,0.00,LWC2 V0.39 B123,2013-09-04 06:14:00,
2013-09-04 00:19:00,68.9,61.0,29.98,East,81,0.0,0.0,76,0.00,,,0.00,LWC2 V0.39 B123,2013-09-04 06:19:00,
2013-09-04 00:24:00,68.6,60.7,29.99,East,80,0.0,0.0,76,0.00,,,0.00,LWC2 V0.39 B123,2013-09-04 06:24:00,
2013-09-04 00:29:00,68.7,61.2,29.99,East,81,0.0,0.0,77,0.00,,,0.00,LWC2 V0.39 B123,2013-09-04 06:29:00,
2013-09-04 00:34:00,68.6,60.7,29.98,East,81,0.0,0.0,76,0.00,,,0.00,LWC2 V0.39 B123,2013-09-04 06:34:00,
2013-09-04 00:39:00,68.3,60.8,29.98,East,81,0.0,0.0,77,0.00,,,0.00,LWC2 V0.39 B123,2013-09-04 06:39:00,
2013-09-04 00:44:00,67.8,61.0,29.98,East,81,0.0,0.0,79,0.00,,,0.00,LWC2 V0.39 B123,2013-09-04 06:44:00,
2013-09-04 00:49:00,67.4,61.0,29.99,East,80,0.0,0.0,80,0.00,,,0.00,LWC2 V0.39 B123,2013-09-04 06:49:00,
2013-09-04 00:54:00,67.2,61.5,29.99,East,80,0.0,0.0,82,0.00,,,0.00,LWC2 V0.39 B123,2013-09-04 06:54:00,
2013-09-04 00:59:00,67.0,61.7,29.99,East,80,0.0,0.0,83,0.00,,,0.00,LWC2 V0.39 B123,2013-09-04 06:59:00,
2013-09-04 01:04:00,66.8,61.8,29.99,East,81,0.0,0.0,84,0.00,,,0.00,LWC2 V0.39 B123,2013-09-04 07:04:00,
2013-09-04 01:09:00,66.5,61.8,29.99,East,81,0.0,0.0,85,0.00,,,0.00,LWC2 V0.39 B123,2013-09-04 07:09:00,
2013-09-04 01:14:00,66.2,61.5,29.99,East,81,0.0,0.0,85,0.00,,,0.00,LWC2 V0.39 B123,2013-09-04 07:14:00,
2013-09-04 01:19:00,66.1,61.8,29.99,East,80,0.0,0.0,86,0.00,,,0.00,LWC2 V0.39 B123,2013-09-04 07:19:00,
2013-09-04 01:24:00,66.0,62.0,29.99,East,81,0.0,0.0,87,0.00,,,0.00,LWC2 V0.39 B123,2013-09-04 07:24:00,
2013-09-04 01:29:00,66.3,62.0,29.99,East,81,0.0,0.0,86,0.00,,,0.00,LWC2 V0.39 B123,2013-09-04 07:29:00,
2013-09-04 01:34:00,66.6,61.9,29.99,East,81,0.0,0.0,85,0.00,,,0.00,LWC2 V0.39 B123,2013-09-04 07:34:00,
2013-09-04 01:39:00,66.9,61.9,29.99,East,81,0.0,0.0,84,0.00,,,0.00,LWC2 V0.39 B123,2013-09-04 07:39:00,
2013-09-04 01:44:00,67.0,62.0,29.99,East,81,0.0,0.0,84,0.00,,,0.00,LWC2 V0.39 B123,2013-09-04 07:44:00,
2013-09-04 01:49:00,67.1,62.1,29.99,East,80,0.0,0.0,84,0.00,,,0.00,LWC2 V0.39 B123,2013-09-04 07:49:00,
2013-09-04 01:54:00,67.2,62.2,29.99,East,81,0.0,0.0,84,0.00,,,0.00,LWC2 V0.39 B123,2013-09-04 07:54:00,
2013-09-04 01:59:00,67.1,62.1,29.99,East,81,0.0,0.0,84,0.00,,,0.00,LWC2 V0.39 B123,2013-09-04 07:59:00,
2013-09-04 02:04:00,67.0,62.3,29.99,East,81,0.0,0.0,85,0.00,,,0.00,LWC2 V0.39 B123,2013-09-04 08:04:00,
2013-09-04 02:09:00,66.9,62.6,29.99,East,81,0.0,0.0,86,0.00,,,0.00,LWC2 V0.39 B123,2013-09-04 08:09:00,
2013-09-04 02:14:00,66.8,62.1,29.99,East,81,0.0,0.0,85,0.00,,,0.00,LWC2 V0.39 B123,2013-09-04 08:14:00,
2013-09-04 02:19:00,66.6,62.3,29.99,East,81,0.0,0.0,86,0.00,,,0.00,LWC2 V0.39 B123,2013-09-04 08:19:00,
2013-09-04 02:24:00,66.4,62.1,29.98,East,80,0.0,0.0,86,0.00,,,0.00,LWC2 V0.39 B123,2013-09-04 08:24:00,
2013-09-04 02:29:00,66.6,62.3,29.99,East,81,0.0,0.0,86,0.00,,,0.00,LWC2 V0.39 B123,2013-09-04 08:29:00,
2013-09-04 02:34:00,66.7,62.4,29.99,East,81,0.0,0.0,86,0.00,,,0.00,LWC2 V0.39 B123,2013-09-04 08:34:00,
2013-09-04 02:39:00,66.6,62.3,29.98,East,81,0.0,0.0,86,0.00,,,0.00,LWC2 V0.39 B123,2013-09-04 08:39:00,
2013-09-04 02:44:00,67.0,63.0,29.98,East,81,0.0,0.0,87,0.00,,,0.00,LWC2 V0.39 B123,2013-09-04 08:44:00,
2013-09-04 02:49:00,67.3,62.6,29.98,East,83,0.0,0.0,85,0.00,,,0.00,LWC2 V0.39 B123,2013-09-04 08:49:00,
2013-09-04 02:54:00,67.6,62.9,29.98,East,98,0.0,0.0,85,0.00,,,0.00,LWC2 V0.39 B123,2013-09-04 08:54:00,
2013-09-04 03:00:00,67.6,62.6,29.99,East,96,0.0,0.0,84,0.00,,,0.00,LWC2 V0.39 B123,2013-09-04 09:00:00,
2013-09-04 03:06:00,67.7,62.3,29.99,East,97,0.0,0.0,83,0.00,,,0.00,LWC2 V0.39 B123,2013-09-04 09:06:00,
2013-09-04 03:12:00,67.6,62.2,29.99,East,96,0.0,0.0,83,0.00,,,0.00,LWC2 V0.39 B123,2013-09-04 09:12:00,
2013-09-04 03:17:00,67.5,62.5,29.99,East,96,0.0,0.0,84,0.00,,,0.00,LWC2 V0.39 B123,2013-09-04 09:17:00,
2013-09-04 03:22:00,67.5,62.5,29.99,East,96,0.0,0.0,84,0.00,,,0.00,LWC2 V0.39 B123,2013-09-04 09:22:00,
2013-09-04 03:28:00,67.3,62.3,29.99,East,96,0.0,0.0,84,0.00,,,0.00,LWC2 V0.39 B123,2013-09-04 09:28:00,
2013-09-04 03:33:00,67.2,62.5,29.99,East,96,0.0,0.0,85,0.00,,,0.00,LWC2 V0.39 B123,2013-09-04 09:33:00,
2013-09-04 03:38:00,67.0,62.3,29.99,East,96,0.0,0.0,85,0.00,,,0.00,LWC2 V0.39 B123,2013-09-04 09:38:00,
2013-09-04 03:43:00,66.9,62.6,29.99,East,96,0.0,0.0,86,0.00,,,0.00,LWC2 V0.39 B123,2013-09-04 09:43:00,
2013-09-04 03:48:00,66.8,63.1,29.99,ESE,106,1.0,2.0,88,0.00,,,0.00,LWC2 V0.39 B123,2013-09-04 09:48:00,
2013-09-04 03:53:00,66.7,63.0,30.00,East,98,1.0,1.0,88,0.00,,,0.00,LWC2 V0.39 B123,2013-09-04 09:53:00,
2013-09-04 03:58:00,66.5,62.8,30.00,East,98,1.0,1.0,88,0.00,,,0.00,LWC2 V0.39 B123,2013-09-04 09:58:00,
2013-09-04 04:03:00,66.5,62.8,30.00,East,98,0.0,0.0,88,0.00,,,0.00,LWC2 V0.39 B123,2013-09-04 10:03:00,
2013-09-04 04:08:00,66.5,62.5,30.00,East,98,0.0,0.0,87,0.00,,,0.00,LWC2 V0.39 B123,2013-09-04 10:08:00,
2013-09-04 04:13:00,66.4,62.4,30.00,East,98,0.0,0.0,87,0.00,,,0.00,LWC2 V0.39 B123,2013-09-04 10:13:00,
2013-09-04 04:18:00,66.3,62.3,30.00,East,98,0.0,0.0,87,0.00,,,0.00,LWC2 V0.39 B123,2013-09-04 10:18:00,
2013-09-04 04:23:00,66.6,62.6,30.00,ESE,111,0.0,0.0,87,0.00,,,0.00,LWC2 V0.39 B123,2013-09-04 10:23:00,
2013-09-04 04:28:00,66.8,62.5,30.00,ESE,104,1.0,2.0,86,0.00,,,0.00,LWC2 V0.39 B123,2013-09-04 10:28:00,
2013-09-04 04:33:00,66.6,62.3,30.00,ESE,107,1.0,1.0,86,0.00,,,0.00,LWC2 V0.39 B123,2013-09-04 10:33:00,
2013-09-04 04:38:00,66.4,62.4,30.00,ESE,113,1.0,2.0,87,0.00,,,0.00,LWC2 V0.39 B123,2013-09-04 10:38:00,
2013-09-04 04:43:00,66.2,62.2,30.00,ESE,103,2.0,2.0,87,0.00,,,0.00,LWC2 V0.39 B123,2013-09-04 10:43:00,
2013-09-04 04:48:00,66.1,62.4,30.01,ESE,113,2.0,2.0,88,0.00,,,0.00,LWC2 V0.39 B123,2013-09-04 10:48:00,
2013-09-04 04:53:00,66.1,62.4,30.01,ESE,108,2.0,2.0,88,0.00,,,0.00,LWC2 V0.39 B123,2013-09-04 10:53:00,
2013-09-04 04:58:00,66.2,62.5,30.01,ESE,121,2.0,2.0,88,0.00,,,0.00,LWC2 V0.39 B123,2013-09-04 10:58:00,
2013-09-04 05:03:00,66.2,62.5,30.01,ESE,109,1.0,2.0,88,0.00,,,0.00,LWC2 V0.39 B123,2013-09-04 11:03:00,
2013-09-04 05:08:00,66.1,62.4,30.01,ESE,122,1.0,2.0,88,0.00,,,0.00,LWC2 V0.39 B123,2013-09-04 11:08:00,
2013-09-04 05:13:00,66.1,62.4,30.01,ESE,122,2.0,2.0,88,0.00,,,0.00,LWC2 V0.39 B123,2013-09-04 11:13:00,